Location: Litvinovka
(48.6667°N, 34.3500°E)
Time: 18:37:44
(UTC+00:00)

CZ-2C R/B - Pass Details

Date: 18 September 2020
Orbit: 785 x 870 km, 98.2° (Epoch: 22 October)

Event Time Altitude Azimuth Distance (km) Brightness Sun altitude
Rises 17:34:35 0° 14° (NNE) 3,408 6.0 -17.8°
Reaches altitude 10° 17:36:57 10° 15° (NNE) 2,481 5.2 -18.2°
Maximum altitude 17:42:29 86° 104° (ESE) 867 2.6 -19.0°
Drops below altitude 10° 17:48:05 10° 194° (SSW) 2,503 5.0 -19.8°
Sets 17:50:28 0° 195° (SSW) 3,441 5.8 -20.2°
